Location: BGSU Observatory
(41.3799°N, 83.6397°W)
Time: 18:19:06
(UTC-04:00)

Tiangong 2 - Visible Passes

Search period start: 18 August 2018 00:00
Search period end: 28 August 2018 00:00
Orbit: 384 x 395 km, 42.8° (Epoch: 18 August)

Date Brightness Start Highest point End Pass type
(mag) Time Alt. Az. Time Alt. Az. Time Alt. Az.
18 Aug 2.5 05:02:08 27° SSE 05:02:13 27° SSE 05:05:00 10° E visible
19 Aug 1.1 05:39:15 23° WSW 05:41:02 70° SSE 05:44:13 10° ENE visible
20 Aug 2.3 04:44:01 36° ESE 04:44:01 36° ESE 04:46:18 10° E visible
20 Aug 1.3 06:16:50 10° W 06:20:01 69° N 06:23:14 10° ENE visible
21 Aug 1.0 05:21:05 40° W 05:22:06 83° NNW 05:25:19 10° ENE visible
22 Aug 3.1 04:25:51 26° E 04:25:51 26° E 04:27:25 10° ENE visible
22 Aug 1.4 05:58:10 11° W 06:01:09 65° N 06:04:21 10° E visible
23 Aug 1.2 05:02:57 64° NW 05:03:12 68° N 05:06:23 10° E visible
24 Aug 4.0 04:07:47 15° ENE 04:07:47 15° ENE 04:08:29 10° ENE visible
24 Aug 1.3 05:40:06 19° WNW 05:42:15 71° N 05:45:27 10° E visible
25 Aug 2.1 04:45:01 46° ENE 04:45:01 46° ENE 04:47:28 10° E visible
25 Aug 1.1 06:18:02 10° W 06:21:12 65° SSW 06:24:22 10° ESE visible
26 Aug 1.0 05:22:21 43° WNW 05:23:17 90° SSW 05:26:29 10° ESE visible
27 Aug 3.6 04:27:30 19° E 04:27:30 19° E 04:28:33 10° E visible
27 Aug 1.7 05:59:51 15° W 06:02:08 39° SSW 06:05:08 10° SE visible
